User: anonymous   Login
Location: Caltech
(34.1382°N, 118.1253°W)
Time: 02:25:16
(UTC-08:00)
Language:

Cosmos 1408 Rocket - Orbit

View from above orbital plane
View from above orbital plane
View from above satellite
View from above satellite

Ground track
Ground track

The orbit data is extracted from the following two-line orbital elements,

1 13553U 82092B   14324.69177356  .00000649  00000-0  75547-4 0   729
2 13553 082.5698 029.1953 0020170 267.5134 208.8601 14.83678328737703
Epoch (UTC): 20 November 2014 16:36:09
Eccentricity: 0.0020170
inclination: 82.5698°
perigee height: 603 km
apogee height: 632 km
right ascension of ascending node: 29.1953°
argument of perigee: 267.5134°
revolutions per day: 14.83678328
mean anomaly at epoch: 208.8601°
orbit number at epoch: 73770

The dashed part of the orbit path shows where the satellite is in the earth's shadow,  

DLR